Location: Unspecified
(0.0000°N, 0.0000°E)
Time: 18:19:03
(UTC+00:00)

Vanguard 1 - All Passes

Search period start: 18 April 2019 00:00
Search period end: 28 April 2019 00:00
Orbit: 652 x 3832 km, 34.3° (Epoch: 17 April)

Date Brightness Start Highest point End Pass type
(mag) Time Alt. Az. Time Alt. Az. Time Alt. Az.
18 Apr - 01:30:38 10° NNW 01:41:53 21° NNE 01:49:39 10° ENE visible
18 Apr - 03:55:49 10° NW 04:07:11 52° NNE 04:13:29 10° ESE visible
18 Apr - 06:21:58 10° W 06:27:43 25° SW 06:31:52 10° SSE daylight
18 Apr - 13:34:51 10° S 13:40:31 17° SE 13:48:11 10° ESE daylight
18 Apr - 15:51:23 10° SW 16:03:03 67° SE 16:23:45 10° ENE daylight
18 Apr - 18:13:09 10° WSW 18:28:58 54° NNW 18:51:44 10° NE visible
18 Apr - 20:43:04 10° WNW 20:59:53 26° NNW 21:17:02 10° NNE visible
18 Apr - 23:21:47 10° NW 23:34:14 17° N 23:44:13 10° NE visible
19 Apr - 01:51:50 10° NNW 02:04:23 26° NNE 02:12:25 10° ENE visible
19 Apr - 04:17:10 10° NW 04:28:31 77° NE 04:34:40 10° ESE visible
19 Apr - 06:45:21 10° WSW 06:48:33 14° SW 06:51:15 10° S daylight
19 Apr - 13:54:20 10° S 14:01:44 25° SE 14:13:03 10° E daylight
19 Apr - 16:12:13 10° SW 16:24:20 84° SE 16:45:55 10° NE daylight
19 Apr - 18:35:19 10° W 18:51:17 44° NNW 19:13:02 10° NE visible
19 Apr - 21:07:38 10° WNW 21:23:28 22° NNW 21:38:52 10° NNE visible
19 Apr - 23:44:55 10° NNW 23:57:49 19° N 00:07:42 10° NE visible
20 Apr - 02:12:59 10° NW 02:26:37 34° NNE 02:34:41 10° E visible
20 Apr - 04:38:48 10° WNW 04:49:36 72° SW 04:55:33 10° SE visible
20 Apr - 14:14:21 10° SSW 14:22:45 35° SE 14:36:54 10° ENE daylight
20 Apr - 16:33:18 10° WSW 16:45:49 78° NW 17:07:45 10° NE daylight
20 Apr - 18:57:58 10° W 19:13:54 36° NNW 19:34:23 10° NE visible
20 Apr - 21:32:24 10° NW 21:47:22 20° N 22:01:13 10° NNE visible
21 Apr - 00:07:11 10° NNW 00:21:06 21° NNE 00:31:08 10° ENE visible
21 Apr - 02:34:10 10° NW 02:48:34 45° NNE 02:56:31 10° E visible
21 Apr - 05:00:51 10° WNW 05:10:27 45° SW 05:16:06 10° SSE visible
21 Apr - 14:34:40 10° SSW 14:43:42 49° SE 15:00:01 10° ENE daylight
21 Apr - 16:54:40 10° WSW 17:07:34 62° NNW 17:29:20 10° NE daylight
21 Apr - 19:21:10 10° WNW 19:36:52 29° NNW 19:55:51 10° NNE visible
21 Apr - 21:56:53 10° NW 22:11:24 19° N 22:24:14 10° NE visible
22 Apr - 00:28:54 10° NNW 00:44:02 26° NNE 00:54:14 10° ENE visible
22 Apr - 02:55:30 10° NW 03:10:13 61° NNE 03:17:59 10° ESE visible
22 Apr - 05:23:27 10° W 05:31:13 28° SW 05:36:17 10° SSE visible
22 Apr - 12:40:00 10° SSE 12:43:23 13° SE 12:47:30 10° ESE daylight
22 Apr - 14:55:13 10° SW 15:04:43 66° SE 15:22:34 10° ENE daylight
22 Apr - 17:16:22 10° WSW 17:29:35 50° NNW 17:50:47 10° NE daylight
22 Apr - 19:44:56 10° WNW 20:00:13 25° NNW 20:17:38 10° NNE visible
22 Apr - 22:20:37 10° NW 22:35:23 19° N 22:47:47 10° NE visible
23 Apr - 00:50:20 10° NW 01:06:39 32° NNE 01:16:52 10° E visible
23 Apr - 03:17:03 10° NW 03:31:36 84° NE 03:39:06 10° SE visible
23 Apr - 05:46:53 10° W 05:52:01 17° SW 05:55:55 10° S daylight
23 Apr - 12:58:48 10° S 13:04:27 21° SE 13:12:39 10° E daylight
23 Apr - 15:16:02 10° SW 15:25:53 87° SE 15:44:40 10° NE daylight
23 Apr - 17:38:29 10° W 17:51:54 40° NNW 18:12:10 10° NE daylight
23 Apr - 20:09:05 10° NW 20:23:56 22° N 20:39:53 10° NNE visible
23 Apr - 22:43:29 10° NNW 22:59:07 22° N 23:11:31 10° NE visible
24 Apr - 01:11:41 10° NW 01:28:57 41° NNE 01:39:03 10° E visible
24 Apr - 03:38:56 10° WNW 03:52:42 70° SW 03:59:56 10° SE visible
24 Apr - 13:18:37 10° SSW 13:25:20 31° SE 13:36:23 10° E daylight
24 Apr - 15:37:05 10° WSW 15:47:17 73° NW 16:06:28 10° NE daylight
24 Apr - 18:01:03 10° W 18:14:31 32° NNW 18:33:37 10° NE visible
24 Apr - 20:33:20 10° NW 20:47:57 20° N 21:02:47 10° NE visible
24 Apr - 23:05:39 10° NNW 23:22:31 25° NNE 23:35:04 10° ENE visible
25 Apr - 01:33:03 10° NW 01:50:57 53° NNE 02:00:49 10° ESE visible
25 Apr - 04:01:12 10° WNW 04:13:36 48° SW 04:20:29 10° SSE visible
25 Apr - 13:38:50 10° SSW 13:46:10 46° SE 13:59:20 10° ENE daylight
25 Apr - 15:58:26 10° WSW 16:08:59 57° NNW 16:28:01 10° NE daylight
25 Apr - 18:24:08 10° WNW 18:37:30 27° NNW 18:55:16 10° NNE visible
25 Apr - 20:57:13 10° NW 21:12:05 20° N 21:26:23 10° NE visible
25 Apr - 23:27:23 10° NW 23:45:32 30° NNE 23:58:10 10° ENE visible
26 Apr - 01:54:32 10° NW 02:12:39 69° NE 02:22:13 10° ESE visible
26 Apr - 04:23:59 10° WNW 04:34:24 32° SW 04:40:45 10° SSE visible
26 Apr - 13:59:22 10° SW 14:07:04 66° SE 14:21:43 10° ENE daylight
26 Apr - 16:20:09 10° W 16:30:57 44° NNW 16:49:26 10° NE daylight
26 Apr - 18:47:40 10° WNW 19:00:52 23° NNW 19:17:18 10° NNE visible
26 Apr - 21:20:25 10° NW 21:36:08 21° N 21:50:26 10° NE visible
26 Apr - 23:48:52 10° NW 00:08:13 37° NNE 00:20:49 10° E visible
27 Apr - 02:16:15 10° NW 02:34:05 89° NE 02:43:19 10° SE visible
27 Apr - 04:47:32 10° W 04:55:15 21° SW 05:00:35 10° S visible
27 Apr - 12:03:29 10° S 12:07:35 17° SE 12:13:01 10° E daylight
27 Apr - 14:20:10 10° SW 14:28:10 90° NNW 14:43:43 10° NE daylight
27 Apr - 16:42:14 10° W 16:53:13 35° NNW 17:10:48 10° NE daylight
27 Apr - 19:11:30 10° NW 19:24:35 20° N 19:39:56 10° NE visible
27 Apr - 21:42:54 10° NNW 21:59:55 24° NNE 22:14:30 10° ENE visible
